Lid_Strength_Index
8 11 13 11 10 10 10 11 11 10 8 10 10 10 9 7 8 8 7 7 6 6 4 3 3 2 2 2 2 2 2 5 3 2 2 2 2 1 1 0 0 0 0 0
10 12 8 7 7 8 9 11 12 9 8 9 11 11 9 8 8 8 7 7 7 6 5 3 3 3 3 3 3 3 2 2 4 4 3 2 1 1 1 0 0 0 0 0
11 9 6 7 9 9 10 11 11 10 8 8 10 11 10 8 7 7 6 6 6 6 5 4 4 3 3 3 3 3 3 3 2 3 4 3 3 2 3 4 2 0 0 0
10 8 8 9 9 9 12 8 8 9 11 15 10 15 11 9 8 7 7 6 6 5 5 5 4 4 3 3 3 2 2 2 2 2 2 2 3 4 3 2 2 2 1 0
11 10 9 10 9 8 10 8 9 9 12 13 12 14 12 9 9 8 7 6 7 6 6 4 4 3 3 2 3 3 2 2 2 2 2 2 3 2 2 2 2 3 1 0
10 7 8 8 7 8 7 9 11 11 13 16 13 13 13 11 9 8 7 6 6 6 5 5 4 3 4 3 3 2 3 2 2 2 2 2 3 2 2 2 2 2 1 2
11 10 7 6 9 8 9 13 16 18 18 17 11 13 12 9 7 8 7 7 7 6 6 6 5 4 4 4 3 3 3 3 2 2 2 2 2 2 2 2 2 2 2 3
13 15 9 7 8 10 10 11 15 19 20 16 11 15 12 8 7 6 6 6 6 8 8 6 4 4 4 4 3 3 3 3 2 2 2 2 2 2 2 2 2 2 2 1
14 14 8 8 7 8 10 13 10 14 13 17 15 12 9 7 8 6 7 6 8 7 8 7 5 5 5 4 3 3 3 3 2 3 2 2 2 2 2 2 2 1 1 1
11 14 10 9 8 8 10 9 14 14 21 22 17 15 14 11 9 8 7 7 7 6 6 6 5 5 5 5 4 2 2 2 2 3 3 2 2 1 1 1 2 2 2 1
10 12 12 9 11 12 11 12 12 14 16 20 20 16 11 11 10 9 8 7 7 6 7 6 6 5 4 4 4 3 2 2 2 2 2 2 2 2 1 1 1 1 1 1
9 12 14 13 9 8 9 12 13 18 19 17 17 17 8 8 9 8 7 6 6 5 5 5 5 5 5 5 4 4 3 3 2 2 2 2 2 2 2 2 1 1 1 1
9 13 17 15 12 9 12 11 11 12 14 17 19 17 8 8 7 7 7 6 5 5 5 4 4 4 5 5 4 4 3 3 3 2 3 3 2 3 2 2 2 2 2 1
7 11 14 18 15 12 13 11 10 13 17 16 16 14 11 9 9 7 7 6 6 5 5 4 5 4 4 4 4 4 4 3 3 3 3 3 3 2 2 2 2 1 1 2
10 14 13 12 11 11 12 11 10 12 12 16 13 13 10 9 8 8 7 6 6 5 5 5 5 4 5 4 4 3 4 3 3 3 3 4 2 2 2 2 2 1 1 1
9 14 13 14 11 10 11 10 10 10 11 11 11 12 9 8 7 8 7 6 6 6 5 4 4 4 4 4 4 3 3 3 3 3 3 3 2 2 2 2 2 2 2 2
12 13 14 16 11 11 15 11 11 11 11 12 15 12 9 9 9 8 7 6 6 6 5 5 5 4 4 4 3 3 3 3 3 3 3 2 3 2 3 3 2 3 3 3
12 13 13 16 14 20 11 8 9 12 11 10 10 10 9 8 7 6 6 6 6 5 5 5 5 5 5 4 4 3 3 3 3 3 2 2 2 3 3 3 3 3 3 3
9 11 16 17 18 13 11 11 11 12 13 9 10 9 8 7 7 7 5 5 6 6 5 5 5 4 4 4 3 3 3 3 3 3 3 2 2 2 3 3 4 3 3 3
9 11 14 16 20 20 14 9 7 8 15 8 8 9 8 8 12 9 5 5 5 4 4 4 4 4 4 4 4 3 3 3 3 3 3 2 2 2 2 2 3 4 4 4
14 14 16 16 18 14 10 8 7 16 15 8 7 8 8 9 8 7 6 6 5 4 4 4 4 4 5 4 4 5 4 5 3 3 3 3 3 2 2 2 2 4 5 5
14 16 16 15 17 19 8 8 13 10 8 8 8 8 9 8 8 7 7 7 6 6 5 5 6 6 5 5 5 5 5 4 4 4 4 4 4 4 4 4 4 5 6 6
15 12 14 13 14 9 8 8 8 8 9 9 9 8 8 9 9 9 9 9 8 7 7 7 7 7 6 6 6 7 6 5 5 6 6 5 5 5 5 5 5 5 6 7
9 8 12 12 9 9 8 7 8 8 9 8 8 7 9 9 9 10 10 9 9 9 8 8 8 8 8 6 6 7 7 8 8 8 7 6 6 6 6 5 6 6 7 7
10 9 11 11 10 9 8 8 8 8 7 8 7 8 9 9 10 10 10 10 10 9 9 8 9 8 8 8 8 9 9 8 8 7 6 6 5 5 6 6 6 7 7 6
8 10 12 12 9 10 10 8 8 9 9 8 8 9 9 9 10 10 11 11 10 10 9 9 9 9 9 9 9 8 7 7 7 7 6 6 6 7 7 6 8 9 8 8